Regional Weather Roundup
Issued by NWS

Home | Current Version | Previous Version | Text Only | Print | Product List | Glossary Off
Versions: 1 2 3 4 5 6 7 8 9 10 11 12 13 14 15 16 17 18 19 20 21 22 23 24 25 26 27 28 29 30 31 32 33 34 35 36 37 38 39 40 41 42 43 44 45 46 47 48 49 50

960
ASUS43 KOAX 270802
RWRNE

WEATHER ROUNDUP FOR NEBRASKA
NATIONAL WEATHER SERVICE OMAHA NE
200 AM CST MON FEB 27 2017

NOTES: SATELLITE DATA IS BEING USED TO AUGMENT CLOUD COVER ABOVE
       12000 FEET.
       "FAIR" INDICATES FEW OR NO CLOUDS BELOW 12,000 FEET WITH NO
       SIGNIFICANT WEATHER AND/OR OBSTRUCTIONS TO VISIBILITY.

  * THESE STATIONS DO NOT REPORT WEATHER SUCH AS RAIN...SNOW OR FOG.

NEZ001>004-019>022-054>056-270900-
NEBRASKA PANHANDLE

CITY           SKY/WX    TMP DP  RH WIND       PRES   REMARKS
SCOTTSBLUFF    CLOUDY    16   7  67 E8        29.78F WCI   5
ALLIANCE       CLOUDY     9   3  77 SE7       29.78F WCI  -2
CHADRON        CLOUDY     9   3  77 CALM      29.76F
KIMBALL        CLOUDY    19  13  76 S8        29.76S WCI   9
SIDNEY         CLOUDY    20  11  68 S12       29.80S WCI   8
$$

NEZ057>060-069>072-079>082-270900-
SOUTHWEST NEBRASKA

CITY           SKY/WX    TMP DP  RH WIND       PRES   REMARKS
NORTH PLATTE   CLEAR     16  10  77 CALM      29.89R
IMPERIAL       CLEAR     20  11  68 S6        29.86S WCI  12
LEXINGTON      CLEAR     20  15  81 CALM      29.91S
MCCOOK         CLEAR     22  10  60 CALM      29.89S
OGALLALA       CLEAR     14   9  80 CALM      29.86S
$$

NEZ005>010-023>029-035>040-094-270900-
NORTH CENTRAL NEBRASKA

CITY           SKY/WX    TMP DP  RH WIND       PRES   REMARKS
VALENTINE      CLOUDY     7   2  80 SW7       29.85R WCI  -5
AINSWORTH      CLEAR     19  11  72 SW9       29.85S WCI   8
BROKEN BOW     CLOUDY    14   9  80 N3        29.90S
O`NEILL        CLOUDY    13   9  81 SW5       29.90S WCI   6
ORD            CLEAR     15  11  83 CALM      29.92R
THEDFORD       CLOUDY    17  12  80 CALM      29.87S
$$

NEZ041-046>049-061>064-073>077-083>087-270900-
SOUTH CENTRAL NEBRASKA

CITY           SKY/WX    TMP DP  RH WIND       PRES   REMARKS
GRAND ISLAND   CLEAR     28  17  63 S6        29.94S WCI  22
AURORA         CLEAR     25  16  67 CALM      29.95S
HASTINGS       CLEAR     25  15  66 SE5       29.94F WCI  19
HEBRON         CLEAR     22  18  82 CALM      29.97S
HOLDREGE       CLEAR     24  11  56 SE3       29.91S
KEARNEY *      CLEAR     21  16  79 CALM      29.93S
YORK           CLEAR     27  23  86 S7        29.96S WCI  19
$$

NEZ011>018-030>034-042>045-270900-
NORTHEAST NEBRASKA

CITY           SKY/WX    TMP DP  RH WIND       PRES   REMARKS
NORFOLK        CLEAR     21  16  81 CALM      29.93S
ALBION         CLEAR     19  15  83 CALM      29.93F
BLAIR          CLEAR     29  22  75 S6        29.97F WCI  23
FREMONT        CLEAR     30  23  74 S5        29.98S WCI  25
TEKAMAH        PTCLDY    21  19  92 CALM      29.99S
WAYNE          CLEAR     19  15  84 S5        29.95R WCI  13
$$

NEZ050>053-065>068-078-088>093-270900-
SOUTHEAST NEBRASKA

CITY           SKY/WX    TMP DP  RH WIND       PRES   REMARKS
LINCOLN        CLEAR     20  17  88 CALM      30.00S
OMAHA EPPLEY   CLEAR     26  19  74 SE6       29.99F WCI  19
BEATRICE       CLEAR     25  19  76 CALM      29.98F
FALLS CITY     CLEAR     24  19  81 CALM      30.01R
NEBRASKA CITY  CLEAR     31  17  57 CALM      29.99S
PLATTSMOUTH    PTCLDY    30  19  63 SE7       29.99F WCI  23
$$

NEZ044-045-051>053-067-270900-
OMAHA AREA

CITY           SKY/WX    TMP DP  RH WIND       PRES   REMARKS
OMAHA EPPLEY   CLEAR     26  19  74 SE6       29.99F WCI  19
BLAIR          CLEAR     29  22  75 S6        29.97F WCI  23
FREMONT        CLEAR     30  23  74 S5        29.98S WCI  25
MILLARD        CLEAR     27  25  91 CALM      29.99F
OFFUTT AFB     CLEAR     20  18  88 CALM      29.98F
PLATTSMOUTH    PTCLDY    30  19  63 SE7       29.99F WCI  23
WAHOO          FAIR      24  20  86 SE3       29.98S
$$




USA.gov is the U.S. government's official web portal to all federal, state and local government web resources and services.